TimeAKST,TemperatureF,Dew PointF,Humidity,Sea Level PressureIn,VisibilityMPH,Wind Direction,Wind SpeedMPH,Gust SpeedMPH,PrecipitationIn,Events,Conditions,WindDirDegrees,DateUTC
12:35 AM,24.8,21.2,86,29.35,0.8,Calm,Calm,-,0.01,Snow,Light Snow,0,2014-02-19 09:35:00
12:53 AM,24.1,21.9,91,29.37,0.8,Calm,Calm,-,0.02,Snow,Light Snow,0,2014-02-19 09:53:00
1:53 AM,24.1,21.0,88,29.38,0.8,SW,5.8,-,0.02,Snow,Light Snow,220,2014-02-19 10:53:00
2:53 AM,24.1,21.0,88,29.39,2.0,Calm,Calm,-,0.01,Snow,Light Snow,0,2014-02-19 11:53:00
3:32 AM,23.0,21.2,93,29.39,1.0,Calm,Calm,-,0.00,Snow,Light Snow,0,2014-02-19 12:32:00
3:53 AM,24.1,21.0,88,29.41,1.0,Calm,Calm,-,0.01,Snow,Light Snow,0,2014-02-19 12:53:00
4:33 AM,23.0,21.2,93,29.40,0.8,Variable,5.8,-,0.00,Snow,Light Snow,0,2014-02-19 13:33:00
4:53 AM,23.0,19.9,88,29.42,0.8,South,5.8,-,0.01,Snow,Light Snow,180,2014-02-19 13:53:00
5:23 AM,21.2,19.4,93,29.41,1.5,South,5.8,-,0.03,Snow,Light Snow,170,2014-02-19 14:23:00
5:53 AM,21.9,19.9,92,29.43,0.8,SSW,4.6,-,0.04,Snow,Light Snow,210,2014-02-19 14:53:00
6:20 AM,21.2,19.4,93,29.43,2.0,Calm,Calm,-,0.00,Snow,Light Snow,0,2014-02-19 15:20:00
6:53 AM,21.9,19.9,92,29.44,3.0,Calm,Calm,-,0.00,,Overcast,0,2014-02-19 15:53:00
6:59 AM,21.2,19.4,93,29.43,0.8,Calm,Calm,-,0.00,Snow,Light Snow,0,2014-02-19 15:59:00
7:06 AM,21.2,19.4,93,29.44,0.8,Calm,Calm,-,0.00,Snow,Light Snow,0,2014-02-19 16:06:00
7:20 AM,21.2,19.4,93,29.44,5.0,Calm,Calm,-,0.01,Snow,Light Snow,0,2014-02-19 16:20:00
7:53 AM,21.9,19.9,92,29.46,5.0,SSE,3.5,-,0.02,Snow,Light Snow,160,2014-02-19 16:53:00
8:41 AM,21.2,19.4,93,29.46,7.0,Calm,Calm,-,0.01,,Overcast,0,2014-02-19 17:41:00
8:53 AM,21.0,18.0,88,29.48,7.0,Calm,Calm,-,0.01,,Overcast,0,2014-02-19 17:53:00
9:08 AM,21.2,19.4,93,29.47,7.0,Calm,Calm,-,N/A,,Overcast,0,2014-02-19 18:08:00
9:53 AM,21.0,19.0,92,29.49,7.0,Calm,Calm,-,N/A,,Overcast,0,2014-02-19 18:53:00
9:57 AM,21.2,17.6,86,29.48,7.0,Calm,Calm,-,0.00,Snow,Light Snow,0,2014-02-19 18:57:00
10:53 AM,23.0,19.9,88,29.52,6.0,Calm,Calm,-,0.00,Snow,Light Snow,0,2014-02-19 19:53:00
11:53 AM,24.1,19.9,84,29.53,7.0,Calm,Calm,-,0.00,,Overcast,0,2014-02-19 20:53:00
12:53 PM,24.1,19.9,84,29.55,7.0,Calm,Calm,-,0.00,Snow,Light Snow,0,2014-02-19 21:53:00
1:53 PM,24.1,19.9,84,29.56,10.0,Calm,Calm,-,0.00,Snow,Light Snow,0,2014-02-19 22:53:00
2:53 PM,25.0,21.0,85,29.58,7.0,Calm,Calm,-,0.00,Snow,Light Snow,0,2014-02-19 23:53:00
3:53 PM,24.1,19.9,84,29.59,10.0,Calm,Calm,-,0.00,,Overcast,0,2014-02-20 00:53:00
4:53 PM,24.1,19.9,84,29.61,10.0,Calm,Calm,-,N/A,,Overcast,0,2014-02-20 01:53:00
5:34 PM,24.8,21.2,86,29.61,10.0,Calm,Calm,-,N/A,,Overcast,0,2014-02-20 02:34:00
5:53 PM,25.0,21.0,85,29.62,10.0,Calm,Calm,-,0.00,Snow,Light Snow,0,2014-02-20 02:53:00
5:59 PM,24.8,21.2,86,29.61,4.0,Calm,Calm,-,0.00,Snow,Light Snow,0,2014-02-20 02:59:00
6:27 PM,24.8,21.2,86,29.62,5.0,Calm,Calm,-,0.00,Snow,Light Snow,0,2014-02-20 03:27:00
6:53 PM,24.1,21.9,91,29.64,7.0,Calm,Calm,-,0.00,Snow,Light Snow,0,2014-02-20 03:53:00
7:01 PM,24.8,21.2,86,29.63,1.5,Calm,Calm,-,0.00,Snow,Light Snow,0,2014-02-20 04:01:00
7:38 PM,24.8,21.2,86,29.64,0.8,Calm,Calm,-,0.01,Snow,Light Snow,0,2014-02-20 04:38:00
7:41 PM,24.8,21.2,86,29.64,0.5,Calm,Calm,-,0.01,Fog-Snow,Snow,0,2014-02-20 04:41:00
7:48 PM,24.8,21.2,86,29.65,0.2,SW,3.5,-,0.01,Fog-Snow,Snow,220,2014-02-20 04:48:00
7:53 PM,24.1,21.9,91,29.66,0.2,Calm,Calm,-,0.02,Fog-Snow,Snow,0,2014-02-20 04:53:00
7:57 PM,24.8,21.2,86,29.65,0.5,Calm,Calm,-,0.00,Fog-Snow,Snow,0,2014-02-20 04:57:00
8:07 PM,24.8,21.2,86,29.65,0.8,Calm,Calm,-,0.00,Snow,Light Snow,0,2014-02-20 05:07:00
8:18 PM,24.8,21.2,86,29.66,1.0,Calm,Calm,-,0.00,Snow,Light Snow,0,2014-02-20 05:18:00
8:34 PM,24.8,21.2,86,29.66,2.0,WSW,4.6,-,0.00,Snow,Light Snow,240,2014-02-20 05:34:00
8:43 PM,24.8,21.2,86,29.66,5.0,WSW,4.6,-,0.00,Snow,Light Snow,250,2014-02-20 05:43:00
8:53 PM,24.1,21.0,88,29.68,7.0,WNW,4.6,-,0.00,Snow,Light Snow,300,2014-02-20 05:53:00
9:21 PM,24.8,21.2,86,29.67,10.0,WSW,3.5,-,0.00,Snow,Light Snow,250,2014-02-20 06:21:00
9:53 PM,23.0,21.0,92,29.69,7.0,WSW,4.6,-,0.00,,Overcast,250,2014-02-20 06:53:00
10:00 PM,23.0,19.4,86,29.68,7.0,WSW,4.6,-,N/A,,Overcast,240,2014-02-20 07:00:00
10:34 PM,23.0,19.4,86,29.69,10.0,Calm,Calm,-,0.00,Snow,Light Snow,0,2014-02-20 07:34:00
10:53 PM,24.1,21.0,88,29.71,10.0,Calm,Calm,-,0.00,Snow,Light Snow,0,2014-02-20 07:53:00
11:53 PM,23.0,21.0,92,29.73,10.0,SSW,4.6,-,0.00,Snow,Light Snow,210,2014-02-20 08:53:00